Time,TemperatureF,DewpointF,PressureIn,WindDirection,WindDirectionDegrees,WindSpeedMPH,WindSpeedGustMPH,Humidity,HourlyPrecipIn,Conditions,Clouds,dailyrainin,SoftwareType,DateUTC
2015-03-31 00:06:00,31.3,26.4,29.87,NW,315,16.0,26.0,82,0.00,,,-99.99,WeatherLink 5.6,2015-03-31 04:06:00,
2015-03-31 00:35:00,31.2,25.4,29.88,NW,315,17.0,32.0,79,0.00,,,-99.99,WeatherLink 5.6,2015-03-31 04:35:00,
2015-03-31 01:05:00,30.8,25.1,29.87,NW,315,18.0,30.0,79,0.00,,,-99.99,WeatherLink 5.6,2015-03-31 05:05:00,
2015-03-31 01:35:00,30.5,25.1,29.88,NW,315,18.0,29.0,80,0.00,,,-99.99,WeatherLink 5.6,2015-03-31 05:35:00,
2015-03-31 02:05:00,30.2,25.1,29.88,NW,315,18.0,27.0,81,0.00,,,-99.99,WeatherLink 5.6,2015-03-31 06:05:00,
2015-03-31 02:35:00,29.9,25.1,29.88,NW,315,16.0,26.0,82,0.00,,,-99.99,WeatherLink 5.6,2015-03-31 06:35:00,
2015-03-31 03:05:00,29.6,24.8,29.86,NW,315,15.0,24.0,82,0.00,,,-99.99,WeatherLink 5.6,2015-03-31 07:05:00,
2015-03-31 03:36:00,29.6,24.8,29.87,NW,315,15.0,24.0,82,0.00,,,-99.99,WeatherLink 5.6,2015-03-31 07:36:00,
2015-03-31 04:06:00,29.4,24.6,29.86,NW,315,18.0,29.0,82,0.00,,,-99.99,WeatherLink 5.6,2015-03-31 08:06:00,
2015-03-31 04:35:00,29.3,24.2,29.86,NW,315,15.0,25.0,81,0.00,,,-99.99,WeatherLink 5.6,2015-03-31 08:35:00,
2015-03-31 05:06:00,29.2,24.4,29.87,NW,315,16.0,26.0,82,0.00,,,-99.99,WeatherLink 5.6,2015-03-31 09:06:00,
2015-03-31 05:35:00,28.9,23.8,29.87,NW,315,13.0,24.0,81,0.00,,,-99.99,WeatherLink 5.6,2015-03-31 09:35:00,
2015-03-31 06:06:00,28.8,23.7,29.87,NW,315,13.0,23.0,81,0.00,,,-99.99,WeatherLink 5.6,2015-03-31 10:06:00,
2015-03-31 06:35:00,28.4,23.9,29.88,NW,315,11.0,22.0,83,0.00,,,-99.99,WeatherLink 5.6,2015-03-31 10:35:00,
2015-03-31 07:06:00,28.1,23.6,29.88,NW,315,14.0,25.0,83,0.00,,,-99.99,WeatherLink 5.6,2015-03-31 11:06:00,
2015-03-31 07:35:00,28.0,23.2,29.89,NW,315,11.0,19.0,82,0.00,,,-99.99,WeatherLink 5.6,2015-03-31 11:35:00,
2015-03-31 08:06:00,28.0,22.9,29.90,WNW,292,10.0,22.0,81,0.00,,,-99.99,WeatherLink 5.6,2015-03-31 12:06:00,
2015-03-31 08:35:00,27.9,22.2,29.89,NW,315,13.0,31.0,79,0.00,,,-99.99,WeatherLink 5.6,2015-03-31 12:35:00,
2015-03-31 09:06:00,28.0,21.7,29.89,NW,315,13.0,23.0,77,0.00,,,-99.99,WeatherLink 5.6,2015-03-31 13:06:00,
2015-03-31 09:35:00,28.4,21.5,29.89,NW,315,12.0,18.0,75,0.00,,,-99.99,WeatherLink 5.6,2015-03-31 13:35:00,
2015-03-31 10:06:00,29.1,21.5,29.88,NNW,337,8.0,16.0,73,0.00,,,-99.99,WeatherLink 5.6,2015-03-31 14:06:00,
2015-03-31 10:35:00,29.4,20.8,29.87,NW,315,10.0,17.0,70,0.00,,,-99.99,WeatherLink 5.6,2015-03-31 14:35:00,
2015-03-31 11:06:00,30.2,20.6,29.87,NNW,337,10.0,17.0,67,0.00,,,-99.99,WeatherLink 5.6,2015-03-31 15:06:00,
2015-03-31 11:35:00,31.6,20.8,29.86,NW,315,9.0,14.0,64,0.00,,,-99.99,WeatherLink 5.6,2015-03-31 15:35:00,
2015-03-31 12:05:00,32.5,19.7,29.85,NW,315,10.0,16.0,59,0.00,,,-99.99,WeatherLink 5.6,2015-03-31 16:05:00,
2015-03-31 12:35:00,32.4,18.4,29.84,WNW,292,8.0,15.0,56,0.00,,,-99.99,WeatherLink 5.6,2015-03-31 16:35:00,
2015-03-31 13:06:00,32.5,18.1,29.84,NW,315,9.0,15.0,55,0.00,,,-99.99,WeatherLink 5.6,2015-03-31 17:06:00,
2015-03-31 13:35:00,32.8,18.0,29.83,NW,315,10.0,16.0,54,0.00,,,-99.99,WeatherLink 5.6,2015-03-31 17:35:00,
2015-03-31 14:05:00,33.7,17.9,29.83,WNW,292,8.0,17.0,52,0.00,,,-99.99,WeatherLink 5.6,2015-03-31 18:05:00,
2015-03-31 14:35:00,34.5,19.5,29.83,WNW,292,9.0,17.0,54,0.00,,,-99.99,WeatherLink 5.6,2015-03-31 18:35:00,
2015-03-31 15:05:00,35.2,17.4,29.82,NW,315,10.0,17.0,48,0.00,,,-99.99,WeatherLink 5.6,2015-03-31 19:05:00,
2015-03-31 15:35:00,35.8,17.5,29.82,WNW,292,7.0,16.0,47,0.00,,,-99.99,WeatherLink 5.6,2015-03-31 19:35:00,
2015-03-31 16:05:00,35.8,16.5,29.82,NW,315,9.0,15.0,45,0.00,,,-99.99,WeatherLink 5.6,2015-03-31 20:05:00,
2015-03-31 16:35:00,34.7,16.5,29.82,NW,315,9.0,14.0,47,0.00,,,-99.99,WeatherLink 5.6,2015-03-31 20:35:00,
2015-03-31 17:05:00,34.3,17.1,29.83,NNW,337,9.0,16.0,49,0.00,,,-99.99,WeatherLink 5.6,2015-03-31 21:05:00,
2015-03-31 17:35:00,34.2,17.0,29.83,NNW,337,8.0,15.0,49,0.00,,,-99.99,WeatherLink 5.6,2015-03-31 21:35:00,
2015-03-31 18:05:00,34.5,17.3,29.84,NNW,337,8.0,16.0,49,0.00,,,-99.99,WeatherLink 5.6,2015-03-31 22:05:00,